Location: Brienzwiler
(46.7508°N, 8.1014°E)
Time: 17:14:39
(UTC+00:00)

Cosmos 1703 - Pass Details

Date: 05 July 2020
Orbit: 525 x 539 km, 82.5° (Epoch: 10 August)

Event Time Altitude Azimuth Distance (km) Brightness Sun altitude
Exits shadow 20:16:00 - 175° (S) 2,323 6.1 -7.7°
Reaches altitude 10° 20:17:22 10° 172° (S) 1,762 5.4 -7.8°
Maximum altitude 20:21:09 54° 95° (E) 644 3.4 -8.3°
Drops below altitude 10° 20:24:58 10° 18° (NNE) 1,778 6.3 -8.7°
Sets 20:27:08 0° 14° (NNE) 2,674 7.3 -9.0°
